STARLINK-36988

Last updated on Mon Mar 30 2026 00:02:05 GMT+0000 (Coordinated Universal Time)

1 67998U 26039N 26088.16668981 -.01916772 00000+0 -53085-1 0 9994 2 67998 43.0004 298.8356 0001812 260.1368 88.1922 15.39651658 6006
UTC large
Height (km)
Speed (km/s)
/
Latitude / Longitude
Inclination (degrees)
Orbital Period (minutes)
Azimuth
Elevation
Range (km)
Doppler Factor

Next 0 passes for location: London (51.5072 / 0.1276)

Sorry there are no passes over London.